Location: Baia Mare
(47.6567°N, 23.5850°E)
Time: 13:57:07
(UTC+03:00)

ISS - Pass Details

Date: 05 July 2019
Orbit: 409 x 418 km, 51.6° (Epoch: 21 July)

Event Time Altitude Azimuth Distance (km) Brightness Sun altitude
Exits shadow 03:34:01 24° 174° (S) 885 -2.6 -14.2°
Maximum altitude 03:34:58 29° 143° (SE) 786 -2.6 -14.1°
Drops below altitude 10° 03:37:54 10° 81° (E) 1,477 -0.4 -13.9°
Sets 03:40:08 0° 70° (ENE) 2,341 0.9 -13.7°
